TimeCDT,TemperatureF,Dew PointF,Humidity,Sea Level PressureIn,VisibilityMPH,Wind Direction,Wind SpeedMPH,Gust SpeedMPH,PrecipitationIn,Events,Conditions,WindDirDegrees,DateUTC
12:53 AM,57.0,43.0,59,30.21,10.0,SSE,3.5,-,N/A,,Clear,150,2013-05-13 05:53:00
1:53 AM,54.0,46.0,75,30.20,10.0,Calm,Calm,-,N/A,,Clear,0,2013-05-13 06:53:00
2:53 AM,54.0,43.0,66,30.19,10.0,Calm,Calm,-,N/A,,Clear,0,2013-05-13 07:53:00
3:53 AM,51.1,44.1,77,30.19,10.0,South,5.8,-,N/A,,Clear,190,2013-05-13 08:53:00
4:53 AM,48.9,43.0,80,30.19,10.0,South,4.6,-,N/A,,Clear,170,2013-05-13 09:53:00
5:53 AM,50.0,44.1,80,30.21,10.0,SSE,4.6,-,N/A,,Clear,160,2013-05-13 10:53:00
6:53 AM,51.1,45.0,80,30.22,10.0,South,4.6,-,N/A,,Clear,180,2013-05-13 11:53:00
7:53 AM,57.9,46.9,67,30.24,10.0,South,4.6,-,N/A,,Clear,180,2013-05-13 12:53:00
8:53 AM,66.0,46.9,50,30.26,10.0,South,9.2,-,N/A,,Clear,180,2013-05-13 13:53:00
9:53 AM,70.0,45.0,41,30.27,10.0,South,13.8,-,N/A,,Clear,180,2013-05-13 14:53:00
10:53 AM,73.9,41.0,30,30.27,10.0,South,13.8,-,N/A,,Clear,190,2013-05-13 15:53:00
11:53 AM,75.9,41.0,29,30.27,10.0,South,11.5,-,N/A,,Clear,190,2013-05-13 16:53:00
12:53 PM,78.1,41.0,27,30.25,10.0,WSW,10.4,-,N/A,,Clear,240,2013-05-13 17:53:00
1:53 PM,80.1,39.0,23,30.23,10.0,SW,11.5,-,N/A,,Clear,230,2013-05-13 18:53:00
3:53 PM,82.9,37.9,20,30.20,10.0,WSW,11.5,19.6,N/A,,Clear,240,2013-05-13 20:53:00
4:53 PM,84.0,39.9,21,30.18,10.0,WSW,10.4,-,N/A,,Clear,240,2013-05-13 21:53:00
5:53 PM,82.9,41.0,23,30.17,10.0,SSW,12.7,-,N/A,,Clear,210,2013-05-13 22:53:00
7:53 PM,77.0,43.0,30,30.15,10.0,South,8.1,-,N/A,,Clear,190,2013-05-14 00:53:00
8:53 PM,73.0,45.0,37,30.15,10.0,South,10.4,-,N/A,,Clear,190,2013-05-14 01:53:00
9:53 PM,66.9,48.0,51,30.17,10.0,South,6.9,-,N/A,,Clear,190,2013-05-14 02:53:00
10:53 PM,64.9,50.0,58,30.19,10.0,South,8.1,-,N/A,,Clear,190,2013-05-14 03:53:00
11:53 PM,66.0,48.9,54,30.18,10.0,South,9.2,-,N/A,,Clear,190,2013-05-14 04:53:00